Find Starlink 1788

NORAD ID: 46689 Int'l Des: 2020-073 Owner: SPXS Country: US Constellation: starlink operational
LEOCIRCULAR

現在のビュー

3D地球を読み込み中...

About Starlink 1788

Starlink 1788 (NORAD 46689) is a starlink constellation satellite (v1.0) launched Oct 18, 2020 by SPXS of US. It operates in LEO, CIRCULAR orbit with a mass of 260.00 kg.

Starlink 1788について

説明を読み込み中...

次回通過

Passes for default location (London). Set your location on the main map for personalized predictions.

高度履歴

Loading altitude history...

軌道要素

1 46689U 20073V 26169.33335648 .00160149 00000-0 53674-3 0 9993
2 46689 53.0304 77.8842 0002533 112.4753 193.9765 15.89178139 6011
Epoch: Jun 18, 2026 • Age: 4 hours

現在のステータス

高度 303.9 km
速度 7.73 km/s
衛星直下点 23.17°N, 153.52°E
打ち上げ日 Oct 18, 2020
運用期間 5.6 years
タイプ internet

技術仕様

分類 Payload
質量 260.00 kg
乾燥質量 248.00 kg
総質量 260.00 kg
長さ 0.20 m
直径 2.80 m
スパン 9.00 m
形状 Box + pan
製造者 SPXS
バスタイプ Starlink
フェーズステータス In Orbit
所有者/国 SPXS/US

Most Searched